[[{"header":{"parameterUnit":"m.s-1","parameterCategory":1,"la1":30.2991,"la2":30.254,"lo1":-89.0895,"lo2":-89.0444,"dy":0.0017,"dx":0.0017,"nx":28,"ny":28,"refTime":"2024-07-01T09:00:00:Z","depth":0,"parameterNumber":2,"parameterNumberName":"U-component_of_WINDS"},"data":[0,0,0,0,0,0,0,0,0,0,0,0,0,0,0,0,0,0,0,0,0,0,0,0,0,0,0,0,0,0,0,0,0,0,0,0,0,0,0,0,0,0,0,0,0,0,0,0,0,0,0,0,0,0,0,0,0,0,-0.4422,-0.4421,0,-0.4318,-0.4317,-0.4316,-0.4277,-0.4277,-0.4277,-0.4278,-0.4171,-0.4168,-0.4165,0,0,0,0,0,0,0,0,0,0,0,0,0,-0.4586,-0.4584,-0.4422,-0.4421,-0.4419,-0.4319,-0.4317,-0.4316,-0.4277,-0.4277,-0.4277,-0.4278,-0.4172,-0.4169,-0.4165,0,0,0,0,0,0,0,0,0,0,0,0,0,-0.4502,-0.4583,-0.4422,-0.4388,-0.4384,-0.4319,-0.4317,-0.4315,-0.4277,-0.4277,-0.4278,-0.4278,-0.4173,-0.4169,-0.4164,-0.4126,0,0,-0.415,-0.4148,0,0,0,0,0,0,0,0,-0.4507,-0.4496,-0.4394,-0.439,-0.4385,-0.4311,-0.4336,-0.4252,-0.4276,-0.4317,-0.4278,-0.4278,-0.4217,-0.4209,-0.4189,-0.4121,-0.4116,-0.4149,-0.4147,-0.4145,-0.4143,0,0,0,0,0,0,0,-0.4513,-0.45,-0.4381,-0.4393,-0.4387,-0.4378,-0.4366,-0.432,-0.4266,-0.4314,-0.4311,-0.4299,-0.4215,-0.4193,-0.4186,-0.4115,-0.415,-0.4145,-0.4143,-0.4141,-0.4011,-0.401,0,0,0,0,0,0,-0.4524,-0.4506,-0.4384,-0.4378,-0.4449,-0.4374,-0.4361,-0.4334,-0.4266,-0.4256,-0.4299,-0.4297,-0.4201,-0.4191,-0.4182,-0.4132,-0.4145,-0.414,-0.4138,-0.4011,-0.401,-0.401,0,0,0,0,0,0,-0.4528,-0.4514,-0.4388,-0.4441,-0.4424,-0.4371,-0.4341,-0.4332,-0.431,-0.4255,-0.4245,-0.4286,-0.4201,-0.4188,-0.414,-0.4128,-0.4138,-0.4134,-0.4012,-0.4011,-0.401,-0.4033,0,0,0,0,0,0,-0.4533,-0.4516,-0.45,-0.4441,-0.4421,-0.4348,-0.434,-0.433,-0.4302,-0.43,-0.4241,-0.4231,-0.42,-0.4147,-0.4135,-0.4122,-0.413,-0.4013,-0.4011,-0.401,-0.4033,-0.4033,-0.4033,0,0,0,0,0,-0.4539,-0.4511,-0.45,-0.4485,-0.4401,-0.4348,-0.4337,-0.4302,-0.4301,-0.4286,-0.425,-0.4233,-0.4132,-0.4143,-0.4129,-0.4114,-0.4013,-0.4012,-0.401,-0.4033,-0.4033,-0.4033,0,0,0,0,0,0,-0.457,-0.4502,-0.4489,-0.4441,-0.44,-0.4341,-0.432,-0.4303,-0.4261,-0.4261,-0.4219,-0.4206,-0.4161,-0.4133,-0.4146,-0.4073,-0.4071,-0.4067,-0.4093,-0.4093,-0.4092,-0.41,-0.4126,0,0,0,0,0,-0.4571,-0.4534,-0.4476,-0.4439,-0.442,-0.4374,-0.4349,-0.4326,-0.4282,-0.4265,-0.4226,-0.4184,-0.4143,-0.4116,-0.4075,-0.4029,-0.4016,-0.4012,-0.4012,-0.4012,-0.4008,-0.3982,-0.398,-0.4005,-0.4005,-0.4005,0,0,-0.4574,-0.4532,-0.451,-0.4445,-0.441,-0.4372,-0.4359,-0.432,-0.4291,-0.4259,-0.421,-0.4181,-0.4131,-0.4084,-0.4061,-0.4059,-0.3999,-0.401,-0.4011,-0.4007,-0.398,-0.3978,-0.3976,-0.4004,-0.4004,-0.4004,0,0,-0.4558,-0.4523,-0.4488,-0.4454,-0.4402,-0.4372,-0.4364,-0.4307,-0.4286,-0.4238,-0.4213,-0.4178,-0.4108,-0.4073,-0.4047,-0.4019,-0.4002,-0.4007,-0.4006,-0.3981,-0.3979,-0.3977,-0.3967,-0.3963,-0.4004,-0.4004,-0.4004,0,-0.4567,-0.4508,-0.4472,-0.4433,-0.4405,-0.4375,-0.4339,-0.4308,-0.4246,-0.4227,-0.4226,-0.4137,-0.4101,-0.4046,-0.4039,-0.4019,-0.4008,-0.4013,-0.3982,-0.398,-0.3977,-0.3967,-0.3963,-0.4005,-0.4005,-0.4005,-0.4005,0,-0.4522,-0.4481,-0.4459,-0.44,-0.437,-0.4333,-0.4291,-0.4265,-0.4245,-0.4215,-0.4165,-0.4122,-0.4072,-0.4057,-0.4037,-0.3999,-0.3999,-0.399,-0.3987,-0.3976,-0.3966,-0.3962,-0.4006,-0.4006,-0.4006,-0.4006,0,0,-0.4521,-0.4443,-0.4436,-0.4408,-0.435,-0.4318,-0.428,-0.4231,-0.4209,-0.4168,-0.4135,-0.4076,-0.4068,-0.4038,-0.4014,-0.3992,-0.3972,-0.3986,-0.3984,-0.3985,-0.3927,-0.3934,-0.393,-0.3961,-0.396,-0.396,-0.3931,0,-0.4497,-0.4428,-0.4394,-0.434,-0.4302,-0.4273,-0.424,-0.4201,-0.4172,-0.4136,-0.4104,-0.4063,-0.4056,-0.4038,-0.4015,-0.398,-0.396,-0.3981,-0.393,-0.3928,-0.3942,-0.3924,-0.3931,-0.3906,-0.3927,-0.3926,-0.3926,0,-0.446,-0.4418,-0.436,-0.4306,-0.4289,-0.426,-0.4212,-0.4178,-0.4133,-0.4114,-0.4081,-0.4057,-0.4017,-0.4018,-0.3961,-0.3976,-0.3953,-0.3933,-0.3931,-0.3924,-0.3926,-0.3916,-0.3897,-0.3894,-0.3919,-0.392,-0.392,0,-0.4465,-0.4395,-0.4351,-0.4328,-0.4264,-0.4245,-0.4217,-0.4172,-0.4145,-0.4104,-0.4086,-0.404,-0.4015,-0.3981,-0.3946,-0.395,-0.3892,-0.389,-0.3875,-0.3876,-0.3863,-0.3864,-0.3839,-0.385,-0.385,-0.385,-0.385,0,-0.4441,-0.4406,-0.4352,-0.4325,-0.4285,-0.4247,-0.4209,-0.418,-0.414,-0.4107,-0.4079,-0.4049,-0.4005,-0.3969,-0.3941,-0.3898,-0.3887,-0.387,-0.3863,-0.3872,-0.3874,-0.3856,-0.3856,-0.3849,-0.3849,-0.3849,-0.3849,0,-0.444,-0.4402,-0.4352,-0.4296,-0.4281,-0.4254,-0.4206,-0.4179,-0.4149,-0.4107,-0.4095,-0.4048,-0.4004,-0.3966,-0.3908,-0.389,-0.3845,-0.3837,-0.386,-0.3856,-0.3843,-0.3844,-0.3805,-0.3797,-0.3814,-0.3813,-0.3813,0,-0.4427,-0.4399,-0.434,-0.4316,-0.4289,-0.425,-0.4222,-0.4184,-0.4156,-0.4103,-0.4082,-0.4037,-0.3998,-0.3929,-0.389,-0.3845,-0.3835,-0.3825,-0.3828,-0.3838,-0.3834,-0.3836,-0.3833,-0.3824,-0.3824,-0.3824,-0.3824,0,-0.4408,-0.439,-0.4351,-0.4305,-0.4273,-0.4235,-0.4196,-0.4178,-0.4133,-0.4103,-0.4058,-0.4028,-0.3969,-0.3924,-0.3875,-0.3847,-0.3828,-0.3824,-0.3818,-0.3826,-0.384,-0.3832,-0.3859,-0.3824,-0.3824,-0.3824,-0.3824,-0.3824,-0.44,-0.4374,-0.4328,-0.4285,-0.4252,-0.4217,-0.4189,-0.4155,-0.4117,-0.4066,-0.4046,-0.4,-0.3956,-0.3889,-0.3861,-0.3824,-0.3821,-0.3812,-0.381,-0.3808,-0.3809,-0.3847,-0.3815,-0.3815,-0.3815,-0.3815,-0.3815,0,-0.4378,-0.4348,-0.4309,-0.4256,-0.4222,-0.4208,-0.4165,-0.4137,-0.4097,-0.4058,-0.402,-0.3968,-0.3924,-0.3882,-0.3836,-0.3815,-0.3805,-0.3804,-0.3805,-0.3798,-0.3815,-0.3824,-0.3813,-0.3813,-0.3813,-0.3813,-0.3813,-0.3813,-0.4363,-0.4319,-0.4296,-0.4235,-0.4205,-0.4159,-0.4136,-0.4103,-0.4071,-0.4015,-0.3978,-0.3951,-0.391,-0.3861,-0.382,-0.3809,-0.3793,-0.3794,-0.3781,-0.3797,-0.3797,-0.3798,-0.3807,-0.3791,-0.3791,-0.3767,-0.3767,-0.3767]},{"header":{"parameterUnit":"m.s-1","parameterCategory":1,"la1":30.2991,"la2":30.254,"lo1":-89.0895,"lo2":-89.0444,"dy":0.0017,"dx":0.0017,"nx":28,"ny":28,"refTime":"2024-07-01T09:00:00:Z","depth":0,"parameterNumber":3,"parameterNumberName":"V-component_of_WINDS"},"data":[0,0,0,0,0,0,0,0,0,0,0,0,0,0,0,0,0,0,0,0,0,0,0,0,0,0,0,0,0,0,0,0,0,0,0,0,0,0,0,0,0,0,0,0,0,0,0,0,0,0,0,0,0,0,0,0,0,0,4.1583,4.1584,0,4.16,4.16,4.16,4.1575,4.1574,4.1573,4.1573,4.1587,4.1588,4.1589,0,0,0,0,0,0,0,0,0,0,0,0,0,4.1528,4.1529,4.1583,4.1584,4.1584,4.16,4.16,4.16,4.1575,4.1574,4.1573,4.1572,4.1587,4.1588,4.1589,0,0,0,0,0,0,0,0,0,0,0,0,0,4.1549,4.1529,4.1583,4.1573,4.1573,4.16,4.16,4.16,4.1575,4.1574,4.1573,4.1572,4.1586,4.1588,4.159,4.1627,0,0,4.1595,4.1596,0,0,0,0,0,0,0,0,4.1548,4.1551,4.1575,4.1574,4.1573,4.1584,4.1586,4.1609,4.1576,4.1574,4.1573,4.1571,4.1587,4.1589,4.1595,4.1628,4.1628,4.1595,4.1596,4.1597,4.1598,0,0,0,0,0,0,0,4.1546,4.155,4.159,4.1575,4.1574,4.1567,4.1569,4.159,4.1588,4.1574,4.1573,4.1575,4.1586,4.1593,4.1595,4.1628,4.1595,4.1597,4.1598,4.1599,4.1693,4.1695,0,0,0,0,0,0,4.1546,4.1549,4.1589,4.159,4.1557,4.1569,4.1571,4.1582,4.1587,4.1587,4.1576,4.1574,4.159,4.1593,4.1595,4.1639,4.1597,4.1599,4.16,4.1692,4.1694,4.1695,0,0,0,0,0,0,4.1545,4.155,4.1589,4.1569,4.1574,4.1572,4.1584,4.1583,4.1589,4.1589,4.1588,4.1583,4.1589,4.1593,4.1619,4.164,4.16,4.1601,4.169,4.1692,4.1694,4.1728,0,0,0,0,0,0,4.1544,4.155,4.1564,4.157,4.1575,4.1614,4.1585,4.1584,4.1593,4.159,4.1595,4.1595,4.1589,4.1617,4.1621,4.1641,4.1603,4.1688,4.1691,4.1694,4.1725,4.1731,4.1736,0,0,0,0,0,4.1542,4.1573,4.1565,4.157,4.1593,4.1615,4.1617,4.161,4.1595,4.1609,4.1609,4.1595,4.1637,4.162,4.1625,4.1645,4.1687,4.169,4.1693,4.1723,4.173,4.1736,0,0,0,0,0,0,4.1568,4.1573,4.1565,4.1599,4.1607,4.161,4.1628,4.1618,4.163,4.1627,4.1617,4.1618,4.1647,4.1649,4.163,4.1682,4.1659,4.1663,4.168,4.1687,4.1692,4.1691,4.1604,0,0,0,0,0,4.1578,4.1597,4.1599,4.1629,4.1633,4.163,4.1639,4.1633,4.1641,4.1644,4.1645,4.1652,4.1667,4.1677,4.169,4.1725,4.1726,4.1742,4.1748,4.1752,4.1756,4.1775,4.1782,4.1706,4.1706,4.1706,0,0,4.1599,4.1604,4.1615,4.1634,4.164,4.1658,4.1633,4.1653,4.1667,4.1646,4.1672,4.1674,4.1681,4.1712,4.1726,4.1715,4.1777,4.1756,4.176,4.1761,4.1779,4.1786,4.1793,4.1708,4.1708,4.1707,0,0,4.1646,4.1651,4.1677,4.1683,4.1692,4.169,4.1696,4.1702,4.1702,4.1728,4.1714,4.1729,4.1755,4.1761,4.1767,4.1817,4.1805,4.1822,4.1851,4.1869,4.1875,4.1881,4.1899,4.1905,4.1825,4.1826,4.1826,0,4.167,4.1698,4.1691,4.1713,4.1721,4.1705,4.173,4.1736,4.1749,4.1755,4.1742,4.1775,4.1778,4.1811,4.1823,4.1829,4.1835,4.1821,4.1875,4.188,4.1885,4.1902,4.1909,4.1828,4.1827,4.1827,4.1827,0,4.1727,4.1747,4.1766,4.178,4.1791,4.1814,4.181,4.1822,4.1815,4.1814,4.1841,4.1845,4.1859,4.1866,4.1859,4.1898,4.1891,4.1877,4.1854,4.1895,4.1911,4.1917,4.1831,4.183,4.1829,4.1829,0,0,4.1791,4.1801,4.1809,4.1815,4.1824,4.1839,4.1861,4.1877,4.1887,4.1896,4.1915,4.1937,4.1924,4.1932,4.1925,4.1942,4.1982,4.1925,4.1925,4.1936,4.2025,4.2036,4.2044,4.1974,4.1975,4.1976,4.2024,0,4.1838,4.1878,4.1873,4.1911,4.1929,4.1914,4.1934,4.1942,4.1942,4.1956,4.1956,4.1972,4.1954,4.1958,4.1974,4.1973,4.1999,4.197,4.199,4.1991,4.1989,4.2052,4.2063,4.2109,4.2031,4.2032,4.2032,0,4.1898,4.1911,4.1952,4.1959,4.1966,4.1984,4.1998,4.2012,4.202,4.2019,4.2028,4.2019,4.2041,4.2017,4.2048,4.2028,4.2036,4.2037,4.2039,4.204,4.2014,4.2055,4.2123,4.213,4.2042,4.2041,4.2041,0,4.1941,4.1968,4.1996,4.2002,4.2011,4.2024,4.2028,4.2035,4.2045,4.2057,4.2063,4.2076,4.2084,4.2094,4.2089,4.2073,4.212,4.2096,4.212,4.212,4.213,4.213,4.2201,4.2135,4.2135,4.2135,4.2135,0,4.1994,4.202,4.2016,4.2033,4.2061,4.2055,4.2083,4.2085,4.2091,4.2108,4.2095,4.2111,4.2103,4.2119,4.2114,4.214,4.2143,4.2143,4.2141,4.2144,4.2144,4.2149,4.2146,4.2137,4.2137,4.2136,4.2136,0,4.2047,4.2045,4.2075,4.2082,4.2084,4.2104,4.2109,4.2125,4.2125,4.2146,4.2151,4.215,4.2167,4.2163,4.2181,4.2178,4.2211,4.2206,4.2209,4.2208,4.2231,4.2229,4.2308,4.2318,4.2246,4.2247,4.2247,0,4.2081,4.21,4.211,4.2121,4.2126,4.2144,4.2154,4.2148,4.2159,4.217,4.2185,4.2202,4.2215,4.2243,4.2243,4.2257,4.2252,4.2279,4.2254,4.2256,4.2253,4.2252,4.2254,4.2284,4.2284,4.2285,4.2286,0,4.2142,4.2141,4.2156,4.2172,4.2185,4.2197,4.2207,4.2217,4.2212,4.2225,4.2243,4.2253,4.2273,4.2289,4.2303,4.2306,4.2295,4.2294,4.23,4.2303,4.2304,4.2304,4.2223,4.2292,4.2291,4.2291,4.229,4.229,4.2187,4.2204,4.2213,4.2231,4.2239,4.2249,4.2265,4.2267,4.2282,4.2298,4.2294,4.2315,4.2322,4.2339,4.2344,4.236,4.235,4.2359,4.2361,4.2363,4.2367,4.2302,4.2362,4.2362,4.2362,4.2362,4.2362,0,4.2247,4.2253,4.227,4.2286,4.23,4.229,4.2301,4.2313,4.2332,4.2341,4.2354,4.2375,4.2391,4.2393,4.2408,4.242,4.2416,4.2425,4.2424,4.2425,4.2375,4.2368,4.2428,4.2428,4.2428,4.2428,4.2428,4.2428,4.2281,4.2309,4.2309,4.2341,4.2346,4.2367,4.2375,4.2384,4.2391,4.2416,4.243,4.2431,4.2437,4.2452,4.2467,4.2467,4.2473,4.2484,4.2482,4.2435,4.2428,4.2422,4.2416,4.2485,4.2485,4.2531,4.2531,4.2531]}]]